TimeEST,TemperatureF,Dew PointF,Humidity,Sea Level PressureIn,VisibilityMPH,Wind Direction,Wind SpeedMPH,Gust SpeedMPH,PrecipitationIn,Events,Conditions,WindDirDegrees,DateUTC
12:53 AM,18.0,-0.9,44,29.47,10.0,WNW,10.4,20.7,N/A,,Overcast,290,2013-02-18 05:53:00
1:53 AM,18.0,-2.0,41,29.49,10.0,Variable,5.8,23.0,N/A,,Overcast,0,2013-02-18 06:53:00
2:53 AM,18.0,-0.9,44,29.50,10.0,WNW,9.2,24.2,N/A,,Clear,290,2013-02-18 07:53:00
3:53 AM,17.1,-0.0,47,29.53,10.0,WNW,9.2,16.1,N/A,,Clear,300,2013-02-18 08:53:00
4:53 AM,17.1,-0.9,45,29.57,10.0,WNW,11.5,24.2,N/A,,Clear,300,2013-02-18 09:53:00
5:53 AM,15.1,-2.0,47,29.60,10.0,WNW,10.4,23.0,N/A,,Clear,300,2013-02-18 10:53:00
6:53 AM,14.0,-2.9,47,29.63,10.0,WNW,11.5,32.2,N/A,,Clear,300,2013-02-18 11:53:00
7:53 AM,16.0,-2.9,43,29.65,10.0,WNW,13.8,31.1,N/A,,Clear,300,2013-02-18 12:53:00
9:53 AM,21.0,-2.0,36,29.73,10.0,WNW,18.4,32.2,N/A,,Clear,290,2013-02-18 14:53:00
10:53 AM,23.0,-0.9,35,29.75,10.0,NW,12.7,33.4,N/A,,Clear,310,2013-02-18 15:53:00
11:53 AM,27.0,1.0,33,29.74,10.0,WNW,18.4,35.7,N/A,,Clear,300,2013-02-18 16:53:00
12:53 PM,28.9,1.9,32,29.76,10.0,West,9.2,25.3,N/A,,Clear,280,2013-02-18 17:53:00
1:53 PM,30.0,3.0,32,29.76,10.0,WNW,13.8,25.3,N/A,,Clear,300,2013-02-18 18:53:00
2:53 PM,30.9,3.0,31,29.79,10.0,WNW,10.4,24.2,N/A,,Clear,290,2013-02-18 19:53:00
3:53 PM,30.0,3.0,32,29.81,10.0,West,12.7,24.2,N/A,,Clear,270,2013-02-18 20:53:00
4:53 PM,28.0,1.9,33,29.85,10.0,WNW,10.4,28.8,N/A,,Clear,290,2013-02-18 21:53:00
5:53 PM,27.0,1.9,34,29.89,10.0,WNW,9.2,24.2,N/A,,Clear,290,2013-02-18 22:53:00
6:53 PM,26.1,1.0,34,29.92,10.0,West,13.8,27.6,N/A,,Clear,280,2013-02-18 23:53:00
7:53 PM,25.0,-0.9,33,29.95,10.0,WNW,9.2,19.6,N/A,,Clear,290,2013-02-19 00:53:00
8:53 PM,23.0,-0.9,35,29.98,10.0,West,4.6,-,N/A,,Clear,270,2013-02-19 01:53:00
9:53 PM,21.9,-2.9,34,29.99,10.0,Variable,4.6,-,N/A,,Clear,0,2013-02-19 02:53:00
10:53 PM,21.0,-4.0,33,30.01,10.0,Variable,4.6,-,N/A,,Clear,0,2013-02-19 03:53:00
11:53 PM,21.0,-5.1,32,30.04,10.0,WSW,4.6,-,N/A,,Clear,250,2013-02-19 04:53:00